Vorticity
nan nan nan nan nan nan nan nan nan nan nan nan nan nan nan nan nan nan nan nan nan nan nan nan nan nan nan nan nan nan nan nan nan nan nan nan nan nan nan nan nan nan nan nan nan nan nan nan nan nan nan nan nan nan nan nan nan nan nan nan nan nan nan nan nan nan nan nan nan nan nan nan nan nan nan nan nan nan nan nan nan nan nan nan nan nan nan nan nan nan nan nan nan nan nan nan nan nan nan nan nan nan nan
nan 6 5 6 7 9 9 7 6 6 7 6 6 3 3 8 7 6 6 7 8 7 6 7 11 11 9 11 14 15 14 15 14 15 17 19 19 17 14 13 12 10 9 9 9 9 9 9 10 10 10 9 8 8 9 11 11 9 8 9 9 9 10 8 7 12 11 5 5 4 2 2 4 8 12 12 10 11 10 4 4 6 7 9 12 11 7 6 5 3 2 3 7 9 10 11 7 2 3 5 8 11 nan
nan 5 5 6 7 8 8 7 7 8 8 7 6 3 3 6 7 7 7 6 6 6 6 8 9 10 11 9 9 10 13 15 14 13 14 15 16 16 15 14 12 10 10 11 11 11 11 10 10 11 11 10 10 10 11 12 11 8 7 8 9 10 10 8 5 9 11 6 5 7 5 3 4 5 9 12 10 11 11 5 5 6 7 9 11 12 10 8 9 7 0 -3 0 5 9 13 12 6 2 4 7 10 nan
nan 5 4 5 6 7 7 7 7 9 10 8 6 5 5 4 5 7 7 6 5 5 5 7 9 11 11 10 8 5 8 12 15 15 14 14 13 12 13 15 14 11 9 10 12 13 12 11 9 10 11 10 10 11 14 17 16 11 6 6 8 11 10 8 7 7 7 5 5 7 6 5 6 5 5 8 9 11 11 6 5 8 11 12 11 13 11 7 8 12 7 -3 -5 -1 5 11 14 10 6 7 9 10 nan
nan 6 4 4 5 7 7 7 6 7 8 8 7 6 5 4 5 6 5 6 5 4 5 7 9 10 11 13 11 4 2 7 15 16 11 12 12 13 14 14 12 9 8 9 10 11 11 10 9 8 8 8 8 9 11 15 17 14 8 5 6 10 11 10 11 11 7 4 4 7 8 6 5 5 5 6 7 12 14 9 6 7 10 13 12 15 15 7 4 13 16 7 0 -4 -2 6 10 12 9 9 13 12 nan
nan 6 5 4 5 6 7 7 6 8 10 9 6 4 3 3 4 6 6 7 6 4 4 6 9 9 10 13 12 6 2 4 12 11 7 12 13 14 14 14 11 10 12 9 7 7 10 11 10 8 8 9 9 8 7 10 14 16 13 10 10 10 8 7 11 15 11 6 2 7 10 7 4 1 2 5 6 11 15 13 8 5 8 11 10 12 13 8 5 8 12 12 8 4 1 1 3 8 9 10 14 14 nan
nan 6 7 6 5 6 7 7 6 8 12 13 8 3 3 3 4 6 7 6 5 4 4 6 7 8 10 11 12 9 3 1 8 9 7 11 12 14 17 19 18 17 16 13 9 5 6 8 9 11 13 14 14 12 10 10 13 19 20 17 15 13 9 5 7 15 15 9 2 6 12 10 8 1 -3 1 4 8 12 13 11 6 6 8 10 12 11 7 6 5 6 7 8 9 8 4 0 3 6 6 9 13 nan
nan 6 7 6 6 7 7 6 7 8 10 13 10 6 4 4 5 9 10 6 2 3 6 6 6 9 11 11 10 9 5 1 7 12 13 13 13 13 16 18 18 20 22 20 17 15 12 11 11 12 14 15 15 14 13 13 14 17 21 22 20 16 12 9 7 13 16 11 4 4 11 11 9 5 -1 -2 -1 7 10 9 11 9 6 8 10 13 12 7 7 8 7 5 4 4 8 8 1 1 6 4 4 10 nan
nan 6 6 6 6 6 6 6 7 9 8 8 8 8 7 6 6 8 9 6 3 4 6 6 7 10 12 12 9 6 4 5 9 14 18 17 14 11 11 12 14 19 22 23 23 22 20 18 15 13 12 12 13 14 13 13 12 12 14 18 21 19 16 12 8 10 15 13 9 4 8 12 8 6 5 0 -4 1 8 8 9 8 7 8 9 10 12 12 10 10 11 9 4 -1 4 9 2 -2 4 6 4 5 nan
nan 6 7 6 6 6 6 6 7 9 8 7 6 8 8 6 6 6 7 6 7 7 6 6 7 10 13 13 10 5 3 5 9 16 20 16 12 9 8 9 11 14 16 17 17 16 15 14 13 13 12 11 11 11 11 10 10 10 10 13 17 17 15 14 11 9 12 13 13 6 5 12 13 8 6 4 -1 -3 3 9 8 8 8 7 8 9 11 13 14 13 12 10 8 0 2 10 10 0 -2 4 6 4 nan
nan 6 7 7 7 6 6 7 7 7 8 7 7 7 8 9 8 6 5 6 7 7 7 6 7 11 14 12 7 6 6 3 6 17 20 14 12 9 5 7 8 8 9 10 11 12 13 12 12 10 9 9 9 10 9 9 9 11 11 13 17 18 14 12 12 14 12 11 13 10 5 8 14 13 9 7 2 -4 -1 6 7 8 9 8 8 9 9 11 12 16 14 10 11 5 -1 6 14 10 0 1 5 6 nan
nan 6 7 7 8 7 6 7 7 7 7 8 7 7 9 10 9 5 4 6 9 9 6 5 7 10 12 11 8 6 5 5 6 16 20 14 12 7 4 5 6 6 7 9 11 13 13 12 9 7 9 10 11 11 10 9 9 9 10 11 15 20 18 12 8 14 17 12 11 12 8 7 10 11 9 10 7 1 -2 1 3 7 9 8 8 10 10 9 9 13 15 13 13 7 -1 2 7 14 8 1 4 10 nan
nan 6 7 6 8 8 7 7 8 8 7 8 9 9 10 9 5 5 7 8 9 8 6 6 7 10 11 12 12 7 3 5 6 12 16 14 12 8 5 5 5 6 9 11 12 12 10 7 5 8 14 14 12 11 10 8 8 7 7 9 11 18 21 16 7 9 17 15 13 12 10 8 7 11 12 10 7 5 3 2 2 5 8 8 8 10 10 8 8 10 15 16 13 8 3 1 2 10 12 3 2 9 nan
nan 6 6 6 7 9 8 8 8 8 8 10 11 10 8 7 6 6 8 8 8 8 7 6 7 9 9 10 11 7 5 9 9 7 10 15 13 7 5 8 8 11 13 12 10 7 5 6 8 14 16 13 12 11 10 8 8 8 7 7 8 13 19 18 13 8 12 15 14 14 13 9 5 7 11 12 8 5 6 6 4 5 7 7 8 9 10 9 8 8 13 17 16 10 4 0 1 7 12 9 2 5 nan
nan 5 6 7 8 9 9 8 7 8 9 11 11 8 7 8 7 7 8 8 9 10 9 6 6 8 8 9 11 8 5 9 11 7 7 11 10 7 9 14 13 12 10 8 5 4 6 9 11 13 11 11 12 13 14 12 9 7 6 6 7 9 14 18 19 14 10 11 10 13 14 10 4 3 9 12 8 3 4 6 3 3 5 7 8 10 11 11 9 6 6 11 13 11 5 2 3 4 8 10 6 3 nan
nan 5 6 6 7 9 9 9 8 8 9 10 9 7 7 8 8 9 9 9 9 10 8 6 6 8 9 9 9 7 6 9 10 8 7 7 8 10 14 14 12 7 3 4 5 6 8 9 10 9 9 10 12 15 17 16 14 11 10 9 9 10 12 15 20 21 17 14 10 10 13 10 5 1 5 11 11 7 5 5 2 0 3 7 9 11 12 12 10 8 7 6 6 6 5 5 4 0 2 7 10 4 nan
nan 5 6 6 7 8 9 9 9 7 8 9 8 7 8 8 9 9 9 9 10 9 8 6 7 9 10 8 8 6 6 8 8 7 8 8 8 10 13 11 9 4 3 7 8 6 5 6 6 7 8 9 11 14 14 15 17 19 19 15 12 10 11 12 14 20 23 21 16 12 12 11 9 3 2 7 12 11 10 9 5 1 4 9 13 13 11 12 12 11 10 10 8 4 5 6 5 -3 -3 4 10 8 nan
nan 6 6 6 7 8 9 10 9 6 7 8 8 7 8 9 9 9 9 9 8 9 8 7 7 9 9 8 8 7 6 7 6 7 8 7 6 10 12 10 7 5 7 9 8 5 4 4 5 6 6 7 9 9 9 13 17 21 19 17 15 12 11 10 10 13 18 22 23 17 13 13 12 7 3 6 10 11 10 10 10 7 6 11 13 14 12 11 13 14 13 12 13 11 10 8 7 -2 -6 2 9 10 nan
nan 6 6 6 7 8 9 10 9 7 6 7 7 7 8 9 9 9 9 9 8 9 8 8 8 9 8 8 8 8 7 7 6 7 7 6 6 9 11 8 6 6 7 11 11 9 8 7 8 7 6 6 6 6 7 10 13 15 15 15 14 13 13 12 11 10 11 15 22 22 16 14 12 11 8 10 11 10 8 10 12 12 10 11 11 11 12 10 10 12 12 12 14 17 15 11 11 3 -5 1 9 11 nan
nan 7 7 8 8 7 8 9 9 7 5 6 6 7 9 9 9 9 9 9 9 8 7 8 9 8 8 8 9 8 7 7 6 6 6 6 7 8 9 7 6 6 9 13 14 12 13 13 12 10 9 8 8 9 10 10 10 12 14 14 13 11 11 11 11 10 10 12 16 22 21 16 11 13 15 15 14 12 10 11 13 15 14 11 10 10 12 11 7 7 9 9 12 14 13 13 17 12 3 3 6 9 nan
nan 8 8 8 8 7 8 8 8 6 6 6 6 6 8 9 10 10 10 10 10 8 7 8 9 9 8 8 8 8 7 7 6 6 6 7 8 9 9 8 7 8 12 15 15 14 15 14 13 12 11 10 10 10 11 11 10 11 11 12 14 13 10 9 8 8 11 13 14 19 22 18 12 13 17 16 14 12 12 13 14 14 15 12 10 12 14 13 8 8 9 9 14 14 11 12 17 16 11 8 4 5 nan
nan 8 7 7 7 8 9 8 6 6 7 6 6 7 7 8 9 10 11 13 12 7 6 9 10 10 9 8 8 8 7 7 6 7 7 7 9 10 9 8 9 11 14 15 14 15 14 14 15 16 13 11 10 10 10 9 10 10 10 11 13 14 13 12 11 11 12 14 15 20 21 17 15 15 18 16 14 12 13 14 16 16 16 14 10 11 16 16 9 9 12 13 17 17 14 15 18 13 8 10 8 4 nan
nan 8 6 6 6 9 9 6 5 7 8 7 7 6 5 7 8 10 13 15 10 4 5 9 10 11 11 10 9 8 7 7 7 7 7 9 11 11 9 10 11 12 12 12 13 14 14 16 18 17 13 12 11 10 10 10 11 10 11 12 13 12 13 14 15 16 15 15 16 19 22 19 18 20 23 23 20 18 18 18 21 22 22 21 18 15 18 19 15 10 11 14 18 16 16 19 16 9 7 12 12 6 nan
nan 8 6 6 5 8 9 7 5 6 7 8 6 4 5 8 9 10 11 10 7 6 8 10 10 12 12 10 9 8 8 7 7 7 8 11 12 10 9 10 11 9 10 12 12 11 14 17 17 14 12 11 11 10 11 12 12 11 12 13 13 13 13 14 15 17 16 15 15 17 20 19 20 22 26 26 24 22 21 21 23 23 21 22 24 24 25 24 22 14 12 16 18 18 16 15 9 8 14 17 15 11 nan
nan 8 7 6 5 6 7 7 5 6 7 7 6 5 7 10 9 8 8 7 8 9 10 11 11 13 12 9 9 9 8 8 8 8 10 12 11 8 10 11 10 10 10 10 9 9 12 14 14 12 11 10 10 10 11 12 13 13 13 13 13 13 13 14 14 15 14 14 14 15 16 16 15 16 18 19 19 18 17 17 17 15 14 16 18 22 23 22 20 16 15 16 17 20 20 15 11 14 22 23 17 14 nan
nan 7 7 6 6 6 6 6 6 6 6 6 6 6 9 10 7 6 8 8 8 9 10 11 12 13 11 7 8 9 9 9 9 10 11 11 11 11 11 11 11 9 7 7 7 9 10 11 11 11 11 10 10 11 12 13 12 13 13 12 11 10 11 13 13 12 12 12 13 12 10 9 9 9 10 11 12 12 12 11 10 9 10 11 12 13 12 11 12 13 12 12 12 15 17 18 18 21 24 23 19 13 nan
nan 7 6 6 6 6 6 5 5 6 6 6 6 7 8 8 6 7 9 7 7 9 10 11 12 12 9 8 9 10 10 10 10 11 11 10 12 11 10 9 8 7 7 8 9 9 9 9 10 11 10 8 6 7 10 11 10 10 10 10 10 9 9 10 11 11 12 13 12 10 6 6 6 7 6 5 7 8 8 8 7 8 10 9 8 6 4 5 8 10 9 9 9 9 11 13 16 19 21 21 19 10 nan
nan 7 6 6 6 5 5 5 5 7 7 5 5 7 9 9 9 9 8 7 8 8 9 11 11 10 9 9 9 10 10 10 10 11 11 11 11 10 10 9 10 9 9 10 9 7 5 5 7 9 7 5 5 8 8 8 7 6 8 10 11 11 10 9 8 10 13 13 12 8 5 5 6 7 5 4 4 6 8 7 7 9 10 8 6 5 6 7 9 8 6 8 10 11 11 10 10 12 16 16 14 7 nan
nan 6 6 6 5 5 5 5 5 6 6 6 7 8 10 10 9 8 6 7 7 7 9 10 11 10 10 10 9 9 10 10 10 11 11 11 10 11 12 12 11 10 10 10 9 7 4 6 8 6 4 7 11 13 12 11 10 7 8 10 12 14 13 10 9 9 11 12 12 10 9 8 8 9 7 5 4 7 9 8 8 9 8 6 6 7 9 9 9 6 4 8 12 13 8 6 8 11 12 11 10 7 nan
nan 6 6 6 6 5 5 5 5 6 7 8 8 8 9 9 8 6 5 6 7 8 9 9 10 10 10 10 8 7 9 10 10 11 11 10 11 13 14 12 11 11 11 11 9 7 7 10 11 8 6 9 12 13 12 11 10 10 9 9 11 13 12 12 12 10 9 11 13 14 13 11 11 10 6 6 8 10 9 8 9 9 7 6 7 9 9 9 7 3 3 8 10 8 7 10 14 16 11 9 8 9 nan
nan 6 6 6 6 6 5 5 6 7 8 7 7 7 8 7 7 6 6 6 8 9 9 10 9 9 10 9 8 8 9 10 10 10 12 11 13 16 17 14 12 10 9 8 8 6 8 11 12 9 9 10 11 10 7 5 5 6 6 7 8 10 11 13 13 11 9 11 15 15 12 10 10 8 7 9 11 10 9 10 9 8 7 7 9 11 10 7 3 0 3 8 8 6 9 14 18 16 12 11 10 11 nan
nan 6 6 6 6 6 6 6 6 7 8 7 6 7 7 7 7 6 7 8 9 9 10 11 10 9 8 8 9 9 8 8 7 10 12 11 13 17 16 12 8 6 7 7 8 7 9 10 8 7 11 12 11 10 9 7 4 2 2 5 6 8 10 12 11 10 11 11 13 12 10 9 9 9 10 11 9 8 11 10 9 8 8 9 10 10 7 4 2 -1 2 7 7 6 7 12 14 15 16 15 14 13 nan
nan 6 6 6 6 6 6 6 6 6 7 7 7 7 7 7 6 6 8 9 8 9 11 10 10 7 6 7 8 7 5 6 8 10 10 11 12 13 9 5 4 7 9 10 10 10 10 9 8 9 10 10 9 8 9 10 9 7 6 8 10 10 9 10 9 11 15 12 10 9 9 9 10 9 10 10 9 11 12 10 9 8 8 9 8 7 6 4 1 -1 4 7 6 4 7 11 12 14 14 14 13 12 nan
nan 7 6 6 6 6 6 6 6 6 7 7 7 6 7 7 6 7 8 8 7 8 9 9 9 8 7 7 7 5 6 7 8 9 9 10 11 9 6 6 7 9 10 9 10 11 10 9 10 12 13 10 7 4 6 10 14 17 17 17 15 12 11 10 8 13 17 13 10 8 7 7 8 10 10 9 10 12 12 9 7 8 9 7 7 7 8 6 -0 -0 6 8 7 8 13 15 14 9 8 8 6 5 nan
nan 7 6 6 6 6 6 6 6 7 7 7 7 7 6 6 6 7 8 7 7 8 8 9 9 8 7 6 5 6 6 7 8 9 10 11 10 9 9 10 9 8 7 8 10 12 10 9 10 13 15 15 12 9 10 13 16 19 21 20 16 13 12 11 9 13 16 13 11 9 7 7 7 9 10 11 10 12 12 9 6 8 10 7 7 7 6 4 -1 2 11 12 11 14 19 16 12 6 4 3 2 4 nan
nan 7 6 6 6 7 7 6 6 7 7 7 7 6 6 6 6 8 8 7 7 8 9 9 9 7 6 6 6 7 8 8 8 9 10 11 11 11 10 10 10 9 9 10 11 10 9 10 11 13 17 18 17 15 14 14 16 17 19 17 14 12 12 12 9 11 13 11 9 8 9 8 7 8 11 13 12 11 11 9 7 10 11 9 7 5 3 1 1 9 16 16 13 13 12 10 8 7 4 3 3 8 nan
nan 7 6 7 7 7 7 6 7 7 7 7 7 7 7 7 7 7 8 7 8 8 8 8 8 7 7 7 8 9 9 9 8 8 10 11 11 10 9 10 11 12 12 11 11 9 9 10 12 14 16 16 16 15 14 15 16 18 19 16 14 11 11 11 11 12 11 8 5 7 11 9 9 10 11 12 12 12 11 10 9 10 10 9 7 4 -0 1 7 14 17 15 10 5 3 8 11 9 5 5 6 9 nan
nan 7 7 7 7 7 7 7 7 7 7 7 7 7 7 7 7 7 7 8 8 8 8 7 8 8 8 9 9 9 9 8 7 8 9 10 9 8 9 11 12 12 12 12 12 10 10 12 14 15 16 15 15 14 14 15 17 19 19 18 16 12 9 9 13 14 12 8 5 7 10 10 11 12 11 10 12 12 10 10 9 9 9 7 4 1 2 5 11 15 14 10 6 2 6 13 14 8 5 6 7 7 nan
nan 7 7 7 7 7 7 7 6 7 7 7 7 7 7 7 7 7 7 8 8 8 7 7 8 8 8 9 10 9 8 8 8 8 9 9 9 9 10 11 12 12 12 12 11 11 13 16 17 16 17 16 15 14 15 16 17 19 19 18 17 14 11 9 11 12 11 10 11 10 10 11 11 12 12 10 10 10 10 10 7 8 8 4 1 3 7 9 10 11 10 7 5 6 11 14 12 7 6 7 8 7 nan
nan 7 7 7 7 7 7 6 6 7 7 7 7 7 8 8 8 8 8 8 8 8 7 8 8 7 8 9 9 9 9 9 8 8 9 9 10 10 11 11 12 12 13 12 12 12 15 16 16 16 17 16 15 17 16 16 16 18 19 17 17 16 13 9 9 9 11 14 15 13 11 12 11 10 11 10 9 9 9 8 7 8 6 3 2 5 8 9 9 9 7 6 7 9 11 10 8 7 8 8 9 8 nan
nan 7 6 6 6 6 6 7 7 7 7 7 8 8 8 8 8 8 9 9 8 8 8 8 8 7 8 9 9 9 9 9 9 9 9 10 10 10 10 11 12 12 12 12 13 13 13 13 12 15 15 14 13 14 13 13 14 16 18 18 17 14 11 11 12 10 9 12 15 16 13 12 11 11 10 9 8 8 9 8 7 6 5 4 5 6 7 9 9 8 7 8 9 9 9 9 8 8 8 9 9 8 nan
nan 7 6 6 6 7 7 7 8 7 7 8 8 8 7 8 8 9 9 9 9 9 9 9 9 9 9 9 8 9 9 9 10 10 10 9 9 10 10 11 11 12 12 13 13 13 12 11 11 11 9 8 7 8 10 12 13 15 16 18 18 12 8 11 14 10 7 10 14 15 14 12 11 11 10 9 8 9 9 8 6 5 4 5 5 6 8 10 9 8 8 10 10 8 8 8 8 7 7 9 9 8 nan
nan 6 6 6 7 7 8 8 8 7 7 8 8 8 8 9 9 9 9 9 9 9 10 10 10 9 7 8 8 9 10 11 11 10 9 9 9 10 10 10 11 11 12 13 13 12 12 12 11 11 8 6 6 9 12 13 12 13 14 16 17 13 9 10 12 9 6 10 13 13 9 10 12 13 11 10 10 11 9 7 6 5 5 6 6 7 9 10 10 8 8 8 8 8 8 8 8 7 8 9 8 8 nan
nan 6 6 7 8 8 8 8 8 8 8 8 8 8 9 8 8 9 9 9 9 9 10 10 9 7 6 7 8 10 12 12 11 10 9 9 9 9 10 10 11 12 12 13 13 13 13 13 12 13 12 11 12 14 14 13 12 14 15 15 15 14 12 12 10 8 7 11 14 12 7 7 11 15 14 11 10 9 8 7 6 6 6 7 7 8 9 10 9 8 8 8 8 8 9 9 9 8 9 10 9 8 nan
nan 6 7 7 8 8 8 8 8 8 8 8 8 8 8 8 8 9 9 9 9 10 10 10 9 8 7 9 11 14 13 12 10 9 8 8 9 9 10 10 11 12 12 13 14 14 13 13 12 13 14 14 15 15 13 12 13 17 19 18 15 13 13 13 11 8 7 9 13 12 8 5 5 13 17 12 9 8 8 7 7 7 7 7 7 8 9 10 9 8 9 9 9 9 10 10 9 8 9 10 8 8 nan
nan 7 8 8 8 8 8 8 8 8 8 8 8 8 8 8 8 9 9 9 9 10 11 10 10 10 9 11 15 16 11 9 8 8 8 8 8 9 10 10 11 12 12 13 14 14 13 12 12 12 13 14 15 14 13 12 13 17 22 22 19 15 14 14 13 10 8 9 11 12 10 6 1 10 17 12 9 9 9 7 6 6 7 7 8 9 11 11 9 9 9 9 9 10 10 9 7 8 11 10 7 9 nan
nan 9 8 7 7 7 7 8 8 8 8 8 8 8 8 8 8 8 9 9 10 11 11 11 11 10 9 12 14 11 6 6 7 8 9 8 9 9 10 10 11 11 12 13 14 14 14 12 11 11 12 13 14 15 15 13 12 15 21 24 23 19 15 13 12 10 9 9 10 11 10 6 1 8 15 11 9 9 9 8 7 8 9 8 9 10 11 11 9 9 9 9 9 10 11 9 8 9 11 11 10 12 nan
nan 7 6 6 7 7 7 8 8 8 8 8 8 8 8 8 8 8 8 9 10 10 10 11 12 10 8 10 10 7 6 8 9 10 9 9 9 9 10 10 11 11 11 13 15 16 14 12 11 11 11 12 13 14 15 15 14 14 19 23 23 19 15 12 8 8 10 12 11 12 11 8 4 7 12 10 9 9 9 10 8 9 11 8 6 8 10 9 8 7 8 8 7 10 11 9 8 8 9 10 12 12 nan
nan 6 6 6 7 7 8 8 8 8 8 8 8 8 8 8 8 8 8 8 9 9 10 10 10 8 8 10 10 10 11 11 11 9 9 9 9 9 9 10 10 10 12 13 15 12 9 11 12 12 11 11 12 13 15 15 16 16 21 24 25 21 15 10 4 4 11 15 14 14 12 9 6 8 11 11 10 7 8 11 8 8 9 6 3 6 13 12 8 8 9 8 7 8 9 8 8 8 9 11 11 10 nan
nan 6 6 7 7 7 7 7 7 6 7 7 7 7 7 8 8 7 7 8 9 9 9 9 9 9 10 11 11 13 13 11 10 9 9 8 8 8 9 9 10 11 12 13 12 8 8 10 11 11 11 11 11 12 13 15 17 18 23 26 25 20 14 10 6 5 8 11 13 15 14 10 8 10 13 12 10 7 8 8 5 5 6 4 5 13 19 16 10 9 10 10 9 9 8 8 10 10 10 10 10 9 nan
nan 7 7 7 7 6 6 6 6 6 7 8 8 8 8 8 8 7 7 9 9 9 9 9 10 11 12 12 12 12 11 10 10 9 8 7 7 8 9 10 11 12 13 13 12 11 11 11 11 11 12 12 11 12 13 14 16 19 25 26 23 15 11 9 9 8 7 8 12 15 15 11 8 12 16 14 10 9 9 6 2 2 4 6 12 21 21 16 12 11 10 9 10 10 9 8 9 11 12 11 10 8 nan
nan 7 6 6 7 6 6 7 8 9 8 8 8 9 9 9 8 7 8 9 9 9 8 10 11 12 12 11 11 11 11 10 10 9 8 7 8 9 10 11 12 12 13 13 13 13 12 12 13 13 13 12 12 12 13 15 17 19 21 23 22 15 10 9 10 10 10 10 13 18 17 11 6 11 18 16 11 10 9 5 -0 -0 3 9 20 26 19 13 11 11 10 10 10 10 9 8 9 12 13 10 7 7 nan
nan 6 5 6 6 7 8 9 10 9 8 8 8 8 8 8 7 7 8 9 9 9 10 11 12 12 11 10 11 12 12 11 10 9 9 8 8 9 10 11 11 12 12 12 12 13 14 14 14 14 14 13 13 13 13 16 18 20 20 19 19 17 11 8 9 11 12 12 16 23 24 16 10 10 14 14 13 11 9 4 -1 -0 7 15 26 26 16 10 9 10 10 10 8 8 8 8 9 10 8 6 5 6 nan
nan 5 5 6 7 9 10 9 9 8 7 7 8 8 8 8 8 8 9 9 10 11 12 12 12 11 11 12 12 12 11 11 10 10 9 8 9 9 9 10 11 13 13 12 12 14 15 16 16 16 15 15 14 15 15 16 19 23 22 19 18 17 12 7 5 9 14 16 20 23 24 20 16 11 10 13 15 13 8 4 2 3 10 19 26 21 11 8 8 9 9 9 8 6 5 7 8 8 7 6 5 7 nan
nan 6 7 8 9 11 10 9 7 7 7 7 8 8 9 9 9 8 9 10 11 12 12 12 11 11 12 12 10 10 11 10 10 9 9 9 8 9 10 11 12 13 12 12 11 12 13 15 16 16 16 16 16 16 15 17 21 27 25 21 18 17 13 7 5 7 13 17 18 16 16 16 16 15 14 15 16 12 7 4 4 6 12 19 23 17 8 7 8 8 8 8 8 7 5 6 9 10 9 7 7 11 nan
nan 7 9 10 11 10 9 8 7 7 7 8 9 9 10 9 8 8 10 11 12 12 12 11 10 11 11 9 9 10 10 10 10 10 9 9 9 10 11 11 11 11 11 11 10 10 12 13 14 15 16 16 16 13 13 16 22 29 29 23 19 17 14 10 9 9 10 12 12 12 13 13 13 15 18 16 15 11 7 6 7 9 13 17 21 15 7 7 7 7 7 7 7 5 4 7 12 13 10 8 10 16 nan
nan 9 10 10 9 8 8 7 7 8 8 9 9 9 8 7 7 8 10 11 12 11 11 10 10 10 10 9 9 10 10 11 11 10 10 10 10 10 10 10 10 11 11 10 10 10 11 12 12 13 15 16 15 13 14 17 23 29 29 23 18 16 16 14 11 9 8 9 11 12 12 12 10 13 17 15 14 12 10 8 8 10 13 15 20 14 7 7 7 7 6 6 6 4 7 11 13 11 8 10 14 17 nan
nan 10 10 9 9 8 7 8 8 10 10 9 8 6 5 5 7 9 11 12 12 11 10 10 11 10 10 10 11 10 11 11 11 9 9 10 10 11 11 11 11 12 11 11 10 9 10 11 11 13 14 15 16 16 16 19 24 30 29 22 15 14 17 16 13 10 8 9 11 11 9 9 7 11 17 16 14 12 10 9 6 6 11 18 21 13 7 7 7 7 6 5 5 5 8 12 11 8 7 11 14 15 nan
nan nan nan nan nan nan nan nan nan nan nan nan nan nan nan nan nan nan nan nan nan nan nan nan nan nan nan nan nan nan nan nan nan nan nan nan nan nan nan nan nan nan nan nan nan nan nan nan nan nan nan nan nan nan nan nan nan nan nan nan nan nan nan nan nan nan nan nan nan nan nan nan nan nan nan nan nan nan nan nan nan nan nan nan nan nan nan nan nan nan nan nan nan nan nan nan nan nan nan nan nan nan nan
CAPE
nan nan nan nan nan nan nan nan nan nan nan nan nan nan nan nan nan nan nan nan nan nan nan nan nan nan nan nan nan nan 3 3 19 143 764 764 1459 1498 1564 1455 1455 1369 1310 1497 1497 1390 1273 1273 1123 1119 1080 1080 1080 1120 1229 1199 1199 1095 1099 1030 1030 998 1112 1087 1087 1060 1109 957 957 1017 896 896 813 774 674 718 718 714 625 67 67 3 nan nan nan nan nan nan nan nan nan nan nan nan nan nan nan nan nan nan nan nan nan
nan nan nan nan nan nan nan nan nan nan nan nan nan nan nan nan nan nan nan nan nan nan nan nan nan nan nan nan nan nan nan nan nan 7 106 106 675 1141 1457 1423 1423 1431 1372 1405 1405 1402 1215 1215 1137 1099 1064 1064 954 925 1143 1147 1147 1079 1010 943 943 946 1062 1039 1039 979 986 883 883 945 763 763 602 736 635 640 640 676 652 87 87 11 nan nan nan nan nan nan nan nan nan nan nan nan nan nan nan nan nan nan nan nan nan
nan nan nan nan nan nan nan nan nan nan nan nan nan nan nan nan nan nan nan nan nan nan nan nan nan nan nan nan nan nan nan nan nan 1 18 18 52 417 1144 1309 1309 1220 1307 1350 1350 1299 1046 1046 1042 1115 935 935 935 978 982 1096 1096 1103 1069 894 894 895 903 987 987 929 903 838 838 804 795 795 713 632 598 526 526 595 615 159 159 27 1 nan nan nan nan nan nan nan nan nan nan nan nan nan nan nan nan nan nan nan nan
nan nan nan nan nan nan nan nan nan nan nan nan nan nan nan nan nan nan nan nan nan nan nan nan nan nan nan nan nan nan nan nan nan nan 23 23 27 71 288 1085 1085 1011 1021 1155 1155 1217 1251 1251 1169 1164 1092 1092 878 884 926 973 973 1019 1026 956 956 887 893 866 866 880 824 796 796 731 760 760 643 628 526 453 453 515 536 204 204 44 8 nan nan nan nan nan nan nan nan nan nan nan nan nan nan nan nan nan nan nan nan
nan nan nan nan nan nan nan nan nan nan nan nan nan nan nan nan nan nan nan nan nan nan nan nan nan nan nan nan nan nan nan nan nan nan nan nan 28 20 18 238 238 651 1005 1189 1189 1078 1241 1241 1226 1181 1076 1076 968 793 840 888 888 866 951 954 954 886 787 792 792 770 786 692 692 729 658 658 640 624 487 356 356 413 493 256 256 44 9 nan nan nan nan nan nan nan nan nan nan nan nan nan nan nan nan nan nan nan nan
nan nan nan nan nan nan nan nan nan nan nan nan nan nan nan nan nan nan nan nan nan nan nan nan nan nan nan nan nan nan nan nan nan nan nan nan 5 49 33 55 55 257 829 1122 1122 965 1489 1489 1627 1250 1337 1337 1098 932 825 881 881 931 839 811 811 813 715 655 655 664 742 589 589 529 497 497 613 594 452 328 328 296 335 287 287 72 23 nan nan nan nan nan nan nan nan nan nan nan nan nan nan nan nan nan nan nan nan
nan nan nan nan nan nan nan nan nan nan nan nan nan nan nan nan nan nan nan nan nan nan nan nan nan nan nan nan nan nan nan nan nan nan nan nan nan 6 92 72 72 148 339 718 718 968 1090 1090 1704 1897 2376 2376 1522 990 896 881 881 819 721 730 730 739 644 552 552 529 600 545 545 403 463 463 584 604 426 276 276 245 258 295 295 106 34 0 0 nan nan nan nan nan nan nan nan nan nan nan nan nan nan nan nan nan nan
nan nan nan nan nan nan nan nan nan nan nan nan nan nan nan nan nan nan nan nan nan nan nan nan nan nan nan nan nan nan nan nan nan nan nan nan nan nan 93 119 119 196 304 594 594 830 721 721 781 1024 982 982 1794 1115 797 809 809 740 704 713 713 687 565 509 509 455 464 501 501 421 454 454 545 544 381 279 279 223 217 189 189 125 49 5 5 nan nan nan nan nan nan nan nan nan nan nan nan nan nan nan nan nan nan
nan nan nan nan nan nan nan nan nan nan nan nan nan nan nan nan nan nan nan nan nan nan nan nan nan nan nan nan nan nan nan nan nan nan nan nan nan nan nan 31 31 139 304 548 548 613 738 738 944 1042 960 960 960 794 587 668 668 876 842 701 701 635 578 520 520 465 419 429 429 438 416 416 448 504 468 335 335 205 162 138 138 117 54 10 10 nan nan nan nan nan nan nan nan nan nan nan nan nan nan nan nan nan nan
nan nan nan nan nan nan nan nan nan nan nan nan nan nan nan nan nan nan nan nan nan nan nan nan nan nan nan nan nan nan nan nan nan nan nan nan nan nan nan nan nan 10 152 328 328 428 537 537 683 808 871 871 937 955 693 867 867 903 797 728 728 661 565 568 568 544 433 391 391 402 384 384 414 496 493 399 399 252 143 112 112 99 60 12 12 nan nan nan nan nan nan nan nan nan nan nan nan nan nan nan nan nan nan
nan nan nan nan nan nan nan nan nan nan nan nan nan nan nan nan nan nan nan nan nan nan nan nan nan nan nan nan nan nan nan nan nan nan nan nan nan nan nan nan nan nan 11 195 195 335 433 433 508 691 816 816 798 827 778 973 973 889 685 629 629 625 558 563 563 570 452 353 353 345 330 330 359 494 442 362 362 271 164 100 100 75 43 11 11 nan nan nan nan nan nan nan nan nan nan nan nan nan nan nan nan nan nan
nan nan nan nan nan nan nan nan nan nan nan nan nan nan nan nan nan nan nan nan nan nan nan nan nan nan nan nan nan nan nan nan nan nan nan nan nan nan nan nan nan nan nan 86 86 263 468 468 525 606 690 690 737 693 594 833 833 747 622 562 562 559 526 530 530 536 509 346 346 290 302 302 333 413 325 329 329 334 174 90 90 68 34 8 8 nan nan nan nan nan nan nan nan nan nan nan nan nan nan nan nan nan nan
nan nan nan nan nan nan nan nan nan nan nan nan nan nan nan nan nan nan nan nan nan nan nan nan nan nan nan nan nan nan nan nan nan nan nan nan nan nan nan nan nan nan nan nan nan 91 310 310 413 550 703 703 893 725 1871 594 594 622 561 503 503 448 503 474 474 480 484 350 350 264 298 298 304 335 295 305 305 321 207 93 93 61 24 4 4 nan nan nan nan nan nan nan nan nan nan nan nan nan nan nan nan nan nan
nan nan nan nan nan nan nan nan nan nan nan nan nan nan nan nan nan nan nan nan nan nan nan nan nan nan nan nan nan nan nan nan nan nan nan nan nan nan nan nan nan nan nan nan nan nan 48 48 223 400 575 575 860 1043 2161 773 773 676 601 475 475 400 457 456 456 456 461 383 383 287 249 249 277 278 259 270 270 299 214 88 88 48 7 1 1 nan nan nan nan nan nan nan nan nan nan nan nan nan nan nan nan nan nan
nan nan nan nan nan nan nan nan nan nan nan nan nan nan nan nan nan nan nan nan nan nan nan nan nan nan nan nan nan nan nan nan nan nan nan nan nan nan nan nan nan nan nan nan nan nan nan nan 13 120 225 225 382 879 698 830 830 710 643 472 472 442 447 427 427 463 441 416 416 286 244 244 204 157 246 280 280 289 210 99 99 37 nan nan nan nan nan nan nan nan nan nan nan nan nan nan nan nan nan nan nan nan nan
nan nan nan nan nan nan nan nan nan nan nan nan nan nan nan nan nan nan nan nan nan nan nan nan nan nan nan nan nan nan nan nan nan nan nan nan nan nan nan nan nan nan nan 7 7 nan nan nan nan 6 147 147 311 598 648 680 680 755 595 698 698 513 455 438 438 458 447 425 425 317 235 235 154 114 192 268 268 249 228 136 136 45 nan nan nan nan nan nan nan nan nan nan nan nan nan nan nan nan nan nan nan nan nan
nan nan nan nan nan nan nan nan nan nan nan nan nan nan nan nan nan nan nan nan nan nan nan nan nan nan nan nan nan nan nan nan nan nan nan nan nan nan nan nan nan nan nan 0 0 19 19 19 24 7 18 18 182 513 861 796 796 726 692 863 863 515 468 449 449 441 466 389 389 314 235 235 193 90 105 185 185 212 264 192 192 13 nan nan nan nan nan nan nan nan nan nan nan nan nan nan nan 0 nan nan nan nan nan
nan nan nan nan nan nan nan nan nan nan nan nan nan nan nan nan nan nan nan nan nan nan nan nan nan nan nan nan nan nan nan nan nan nan nan nan nan nan nan nan nan nan nan nan nan 9 46 46 90 64 26 26 34 222 728 1074 1074 1249 788 533 533 790 1101 455 455 475 474 426 426 352 232 232 169 130 68 116 116 175 227 161 161 0 nan nan nan nan nan nan nan nan nan nan nan nan nan nan nan 2 1 nan nan nan nan
nan nan nan nan nan nan nan nan nan nan nan nan nan nan nan nan nan nan nan nan nan nan nan nan nan nan nan nan nan nan nan nan nan nan nan nan nan nan nan nan nan nan nan nan nan nan 22 22 55 74 119 119 83 60 333 728 728 995 799 808 808 769 716 516 516 562 340 187 187 396 271 271 208 126 3 60 60 127 57 24 24 nan nan nan nan nan nan nan nan nan nan nan nan nan nan nan nan 0 9 1 1 nan nan
nan nan nan nan nan nan nan nan nan nan nan nan nan nan nan nan nan nan nan nan nan nan nan nan nan nan nan nan nan nan nan nan nan nan nan nan nan nan nan nan nan nan nan nan nan nan nan nan 40 60 114 114 199 224 272 398 398 663 684 609 609 494 715 807 807 1095 781 594 594 453 438 438 293 80 66 6 6 nan 0 nan nan nan nan nan nan nan nan nan nan nan nan nan nan nan nan nan nan nan 10 5 5 0 8
nan nan nan nan nan nan nan nan nan nan nan nan nan nan nan nan nan nan nan nan nan nan nan nan nan nan nan nan nan nan nan nan nan nan nan nan nan nan nan nan nan nan nan nan nan nan nan nan 4 94 143 143 196 237 284 268 268 317 458 504 504 348 305 323 323 506 927 584 584 381 367 367 187 94 62 24 24 3 nan nan nan nan nan nan nan nan 0 0 6 5 1 1 nan nan nan nan nan nan 6 6 6 6 17
nan nan nan nan nan nan nan nan nan nan nan nan nan nan nan nan nan nan nan nan nan nan nan nan nan nan nan nan nan nan nan nan nan nan nan nan nan nan nan nan nan nan nan nan nan nan nan nan 20 66 132 132 206 282 321 377 377 334 291 277 277 236 162 43 43 61 173 244 244 257 292 292 187 98 72 27 27 9 nan nan nan nan nan 1 1 1 3 3 3 9 11 11 nan nan nan nan nan nan 1 nan nan nan 8
nan nan nan nan nan nan nan nan nan nan nan nan nan nan nan nan nan nan nan nan nan nan nan nan nan nan nan nan nan nan nan nan nan nan nan nan nan nan nan nan nan nan nan nan nan nan nan nan 10 50 109 109 113 218 378 350 350 308 188 123 123 129 57 18 18 18 25 23 23 5 20 20 nan nan nan nan nan nan nan nan nan nan nan 13 13 21 12 12 7 0 0 0 nan nan nan nan nan nan nan nan nan nan nan
nan nan nan nan nan nan nan nan nan nan nan nan nan nan nan nan nan nan nan nan nan nan nan nan nan nan nan nan nan nan nan nan nan nan nan nan nan nan nan nan nan nan nan nan nan nan nan nan 0 25 96 96 146 174 303 294 294 313 212 35 35 23 15 3 3 2 2 nan nan 2 1 1 0 nan nan nan nan nan nan nan nan nan nan nan nan nan nan nan nan nan nan nan nan nan nan nan nan nan nan nan nan nan nan
nan nan nan nan nan nan nan nan nan nan nan nan nan nan nan nan nan nan nan nan nan nan nan nan nan nan nan nan nan nan nan nan nan nan nan nan nan nan nan nan nan nan nan nan nan nan nan nan nan 11 54 54 133 173 281 218 218 248 347 52 52 nan nan nan nan nan nan 0 0 1 0 0 0 nan nan nan nan nan nan nan nan nan nan nan nan nan nan nan nan nan nan nan nan nan nan nan nan nan nan nan nan nan nan
nan nan nan nan nan nan nan nan nan nan nan nan nan nan nan nan nan nan nan nan nan nan nan nan nan nan nan nan nan nan nan nan nan nan nan nan nan nan nan nan nan nan nan nan nan nan nan nan nan nan 2 2 37 161 286 228 228 162 222 25 25 nan nan nan nan nan nan 0 0 1 0 0 0 0 0 nan nan nan 0 nan nan nan nan nan nan nan nan nan nan nan nan nan nan nan nan nan nan nan nan nan nan nan nan
nan nan nan nan nan nan nan nan nan nan nan nan nan nan nan nan nan nan nan nan nan nan nan nan nan nan nan nan nan nan nan nan nan nan nan nan nan 8 15 10 10 0 nan nan nan nan nan nan nan nan 6 6 29 137 266 275 275 114 119 20 20 0 nan nan nan nan nan 1 1 1 nan nan 0 0 0 nan nan 0 0 nan nan nan nan nan nan nan nan nan nan nan nan nan nan nan nan nan nan nan nan nan nan nan nan
nan nan nan nan nan nan nan nan nan nan nan nan nan nan nan nan nan nan nan nan nan nan nan nan nan nan nan nan nan nan nan nan nan nan nan nan 0 18 33 37 37 20 10 3 3 1 0 0 nan nan 14 14 67 195 317 313 313 211 104 22 22 2 1 nan nan nan 1 1 1 1 0 0 0 1 1 2 2 2 3 2 2 0 0 nan nan nan nan nan nan 0 nan nan nan nan nan nan nan nan nan nan nan nan nan
nan nan nan nan nan nan nan nan nan nan nan nan nan nan nan nan nan nan nan nan nan nan nan nan nan nan nan nan nan nan nan nan nan nan nan nan nan 11 34 49 49 56 52 26 26 3 2 2 7 2 1 1 33 120 323 380 380 313 101 18 18 8 1 0 0 0 3 2 2 1 1 1 1 0 1 2 2 2 2 2 2 1 1 1 1 0 0 0 0 nan nan nan nan nan nan nan nan nan nan nan nan nan nan
nan nan nan nan nan nan nan nan nan nan nan nan nan nan nan nan nan nan nan nan nan nan nan nan nan nan nan nan nan nan nan nan nan nan nan nan nan 4 14 32 32 54 63 60 60 27 14 14 19 26 7 7 12 75 260 263 263 341 175 31 31 5 3 1 1 2 6 4 4 2 1 1 0 0 nan 0 0 1 2 2 2 2 2 2 2 1 0 0 0 nan nan nan 0 0 nan nan nan nan nan nan nan nan nan
nan nan nan nan nan nan nan nan nan nan nan nan nan nan nan nan nan nan nan nan nan nan nan nan nan nan nan nan nan nan nan nan nan nan nan nan nan 0 12 29 29 35 50 70 70 67 56 56 37 49 45 45 16 59 159 203 203 269 224 35 35 2 1 2 2 1 2 2 2 2 1 1 0 0 0 1 1 2 1 2 2 2 3 2 2 2 1 1 0 nan nan nan 0 0 nan nan nan nan nan nan nan nan nan
nan nan nan nan nan nan nan nan nan nan nan nan nan nan nan nan nan nan nan nan nan nan nan nan nan nan nan nan nan nan nan nan nan nan nan nan nan nan 1 13 13 13 22 40 40 67 99 99 82 77 79 79 45 61 109 193 193 257 298 97 97 4 1 1 1 nan 2 2 2 3 1 1 1 1 1 2 2 2 1 3 3 3 3 2 2 2 2 2 2 1 nan nan 0 nan 0 nan nan nan nan nan nan nan nan
nan nan nan nan nan nan nan nan nan nan nan nan nan nan nan nan nan nan nan nan nan nan nan nan nan nan nan nan nan nan nan nan nan nan nan nan nan nan nan nan nan 0 2 10 10 39 107 107 106 117 116 116 59 44 90 194 194 257 344 210 210 8 2 2 2 2 6 6 6 5 4 4 3 3 3 2 2 1 2 4 4 5 4 3 3 3 3 3 4 2 2 2 3 1 0 1 1 nan nan nan nan 0 0
nan nan nan nan nan nan nan nan nan nan nan nan nan nan nan nan nan nan nan nan nan nan nan nan nan nan nan nan nan nan nan nan nan nan nan nan nan nan nan nan nan nan nan 1 1 19 66 66 85 117 157 157 100 56 93 165 165 219 358 237 237 5 1 2 2 4 7 9 9 9 9 9 5 3 1 3 3 2 0 1 1 0 1 2 2 1 1 1 2 1 4 4 3 nan 0 0 0 0 nan 0 0 1 2
nan nan nan nan nan nan nan nan nan nan nan nan nan nan nan nan nan nan nan nan nan nan nan nan nan nan nan nan nan nan nan nan nan nan nan nan nan nan nan nan nan nan nan nan nan 3 35 35 61 93 148 148 168 107 66 90 90 36 172 222 222 3 1 3 3 6 8 8 8 10 10 10 3 1 0 0 0 nan nan nan nan nan 0 0 0 0 0 0 1 1 4 4 6 3 1 1 1 nan nan nan nan 1 1
nan nan nan nan nan nan nan nan nan nan nan nan nan nan nan nan nan nan nan nan nan nan nan nan nan nan nan nan nan nan nan nan nan nan nan nan nan nan nan nan nan nan nan nan nan 1 32 32 40 88 100 100 145 146 66 67 67 24 110 160 160 2 3 7 7 10 9 8 8 6 3 3 0 nan nan nan nan nan nan nan nan nan nan 0 0 0 1 1 1 2 2 2 3 3 2 1 1 0 nan nan nan 0 nan
nan nan nan nan nan nan nan nan nan nan nan nan nan nan nan nan nan nan nan nan nan nan nan nan nan nan nan nan nan nan nan nan nan nan nan nan nan nan nan nan nan nan nan 0 0 4 34 34 46 88 84 84 104 116 60 66 66 98 125 94 94 4 5 4 4 4 4 3 3 1 0 0 nan nan nan nan nan nan nan nan nan nan nan nan nan 0 2 2 1 2 2 2 3 6 3 1 1 1 1 1 1 2 0
nan nan nan nan nan nan nan nan nan nan nan nan nan nan nan nan nan nan nan nan nan nan nan nan nan nan nan nan nan nan nan nan nan nan nan nan nan nan nan nan nan nan 0 5 5 28 57 57 94 110 112 112 84 83 66 75 75 105 70 93 93 9 3 1 1 0 0 0 0 0 0 0 nan nan 0 0 0 nan nan nan nan 0 0 0 0 1 2 2 2 2 1 1 2 4 3 1 1 0 0 2 2 2 2
nan nan nan nan nan nan nan nan nan nan nan nan nan nan nan nan nan nan nan nan nan nan nan nan nan nan nan nan nan nan nan nan nan nan nan nan nan nan nan nan nan 0 2 9 9 46 95 95 117 140 145 145 118 99 80 112 112 145 75 68 68 9 2 1 1 0 nan 1 1 1 0 0 nan nan 0 0 0 0 0 1 1 1 1 2 2 3 4 4 3 2 0 0 0 2 2 1 1 0 0 1 1 3 3
nan nan nan nan nan nan nan nan nan nan nan nan nan nan nan nan nan nan nan nan nan nan nan nan nan nan nan nan nan nan nan nan nan nan nan nan nan nan nan nan nan nan 2 10 10 59 104 104 130 178 183 183 178 148 145 177 177 173 55 20 20 5 2 1 1 0 nan 0 0 1 0 0 nan 0 0 1 1 1 2 3 3 3 3 5 5 7 7 7 5 2 nan nan nan 0 0 0 0 0 0 1 1 1 1
nan nan nan nan nan nan nan nan nan nan nan nan nan nan nan nan nan nan nan nan nan nan nan nan nan nan nan nan nan nan nan nan nan nan nan nan nan nan nan nan nan nan nan 1 1 16 73 73 124 202 209 209 197 170 195 214 214 190 79 19 19 2 1 3 3 0 0 3 3 3 1 1 0 0 1 2 2 3 4 5 5 4 5 7 7 8 10 10 8 4 nan nan nan nan nan nan nan nan nan nan nan nan nan
nan nan nan nan nan nan nan nan nan nan nan nan nan nan 1 nan nan nan nan nan nan nan nan nan nan nan nan nan nan nan nan nan nan nan nan nan nan nan nan nan nan nan nan nan nan 0 3 3 56 150 248 248 301 239 224 253 253 226 128 2 2 0 2 2 2 1 2 10 10 1 2 2 1 1 2 4 4 5 6 7 7 8 8 8 8 8 7 7 6 3 nan nan nan nan nan nan nan nan nan nan nan nan nan
2 1 2 0 0 2 1 1 nan nan nan nan nan nan nan nan nan nan nan nan nan nan nan nan nan nan nan nan nan nan nan nan nan nan nan nan nan nan nan nan nan nan nan nan nan 0 1 1 5 80 238 238 330 223 164 237 237 297 175 9 9 nan 0 7 7 7 11 14 14 13 13 13 2 7 7 8 8 9 11 9 9 7 3 1 1 0 nan nan nan nan nan nan nan nan nan nan nan nan nan nan nan nan nan
4 2 4 6 6 6 3 3 1 nan nan nan nan nan nan nan nan nan nan nan nan nan nan nan nan nan nan nan nan nan nan nan nan nan nan nan nan nan nan nan nan nan nan 0 0 1 2 2 4 21 167 167 399 312 200 195 195 269 191 18 18 0 nan 8 8 12 16 16 16 14 15 15 1 7 8 9 9 11 10 8 8 3 1 0 0 0 nan nan nan nan nan nan nan nan nan nan nan nan nan nan nan nan nan
8 9 10 8 8 6 3 3 4 1 nan nan nan nan nan nan nan nan nan nan nan nan nan nan nan nan nan nan nan nan nan nan nan nan nan nan nan nan nan nan nan nan nan 0 0 3 7 7 8 19 96 96 359 449 348 326 326 317 267 43 43 1 1 8 8 18 12 13 13 13 13 13 18 7 11 10 10 12 12 8 8 1 0 0 0 0 nan nan nan nan nan nan nan nan nan nan nan nan nan nan nan nan nan
19 17 14 13 13 14 10 10 5 7 2 2 nan nan nan nan nan nan nan nan nan nan nan nan nan nan nan nan nan nan nan nan nan nan nan nan nan nan nan nan nan nan nan 1 1 6 12 12 15 19 37 37 290 535 516 339 339 335 281 80 80 1 5 8 8 14 13 13 13 13 15 15 22 11 13 13 13 12 11 8 8 0 0 0 0 0 nan nan nan nan nan nan nan nan nan nan nan nan nan nan nan nan nan
24 20 20 20 20 23 15 15 13 7 2 2 0 nan nan nan nan nan nan nan nan nan nan 31 31 102 0 0 nan nan nan nan 0 nan nan nan nan nan nan nan nan nan 0 2 2 8 16 16 18 22 32 32 189 492 563 346 346 295 318 160 160 4 8 11 11 22 23 13 13 14 15 15 23 15 15 13 13 13 10 4 4 0 nan nan nan nan nan nan nan nan nan nan nan nan nan nan nan nan nan nan nan nan nan
29 27 29 29 29 26 29 29 23 20 10 10 4 0 nan nan nan nan nan nan nan nan nan 48 48 147 0 0 nan nan nan nan 0 nan nan nan nan nan nan nan nan 0 2 4 4 8 11 11 12 18 28 28 54 309 566 503 503 287 297 151 151 19 7 18 18 33 31 20 20 14 17 17 17 20 18 15 15 12 9 2 2 nan nan nan nan nan nan nan nan nan nan nan nan nan nan nan nan nan nan nan nan nan nan
36 35 38 34 34 32 42 42 45 44 30 30 16 2 nan nan nan nan nan nan nan nan nan 30 30 80 nan nan nan 0 0 0 1 nan nan nan nan nan nan 0 0 2 4 4 4 6 10 10 13 13 18 18 35 135 518 563 563 303 296 122 122 24 23 25 25 35 36 33 33 17 16 16 20 24 22 15 15 11 4 nan nan nan nan nan nan nan nan nan nan nan nan nan nan nan nan nan nan nan nan nan nan nan nan
48 46 55 49 49 55 53 53 50 59 57 57 49 16 3 nan nan nan nan nan nan nan nan nan nan nan 0 0 nan nan nan nan nan nan 0 0 nan nan 0 2 2 6 6 5 5 7 8 8 11 13 14 14 15 38 312 547 547 346 269 100 100 38 29 31 31 37 46 45 45 22 23 23 24 28 25 16 16 8 nan nan nan nan nan nan nan nan nan nan nan nan nan nan nan nan nan nan nan nan nan nan nan nan nan
56 57 64 71 71 82 71 71 59 67 62 62 58 33 13 nan nan nan nan nan nan nan nan nan nan nan 0 0 2 nan 0 0 0 1 4 4 2 1 3 5 5 8 8 7 7 7 9 9 11 12 12 12 13 24 95 426 426 369 291 129 129 51 34 38 38 38 41 26 26 28 30 30 32 37 30 17 17 5 nan nan nan nan nan nan nan nan nan nan nan nan nan nan nan nan nan nan nan nan nan nan nan nan nan
61 67 75 82 82 94 93 93 91 81 71 71 56 50 26 0 0 nan nan nan nan nan nan nan nan nan 2 2 6 2 3 3 7 8 13 13 11 7 8 11 11 12 12 12 12 11 11 11 13 13 14 14 14 22 48 210 210 315 280 165 165 72 46 41 41 39 41 8 8 33 34 34 40 42 29 9 9 0 nan nan nan nan nan nan nan nan nan nan nan nan nan nan nan nan nan nan nan nan nan nan nan nan nan
74 79 89 99 99 114 113 113 100 72 78 78 73 60 27 0 0 nan nan nan nan nan nan nan nan nan 3 3 8 3 10 10 15 20 20 20 16 12 13 15 15 18 18 18 18 17 15 15 16 17 17 17 17 23 43 89 89 100 133 176 176 101 56 42 42 37 36 35 35 37 42 42 38 41 21 2 2 nan nan nan nan nan nan nan nan nan nan nan nan nan nan nan nan nan nan nan nan nan nan nan nan nan nan
84 86 95 114 114 130 123 123 100 88 79 79 63 47 15 0 0 nan nan nan nan nan nan nan nan nan 1 1 11 13 29 29 37 35 32 32 17 14 14 17 17 19 20 24 24 21 20 20 21 22 23 23 23 21 35 59 59 65 48 154 154 130 60 38 38 37 36 48 48 42 45 45 39 39 11 nan nan nan nan nan nan nan nan nan nan nan nan nan nan nan nan nan nan nan nan nan nan nan nan nan nan nan nan
92 99 107 111 111 128 119 119 102 89 76 76 51 29 10 nan nan nan nan nan nan nan nan nan nan nan 1 1 8 14 22 22 41 35 33 33 16 15 12 14 14 19 24 25 25 29 27 27 23 27 28 28 27 25 32 53 53 34 35 88 88 133 55 29 29 32 41 39 39 36 36 36 31 29 2 nan nan nan nan nan nan nan nan nan nan nan nan nan nan nan nan nan nan nan nan nan nan nan nan nan nan nan nan
102 120 129 124 124 125 127 127 109 92 77 77 52 18 10 nan nan nan nan nan nan nan nan nan nan 0 1 1 17 22 24 24 35 35 34 34 21 23 19 16 16 19 25 25 25 27 31 31 28 28 34 34 35 30 31 52 52 28 20 46 46 108 49 14 14 28 33 31 31 29 33 33 28 23 1 nan nan nan nan nan nan nan nan nan nan nan nan nan nan nan nan nan nan nan nan nan nan nan nan nan nan nan nan
128 147 140 140 140 146 140 140 120 102 77 77 44 18 4 nan nan nan nan nan nan nan nan nan nan nan 1 1 7 9 15 15 19 30 32 32 32 30 27 18 18 14 24 25 25 24 29 29 31 27 34 34 36 32 31 42 42 20 23 49 49 84 33 19 19 25 23 24 24 26 25 25 27 25 3 nan nan nan nan nan nan nan nan nan nan nan nan nan nan nan nan nan nan nan nan nan nan nan nan nan nan nan nan
151 161 167 152 152 149 141 141 121 101 65 65 33 13 nan nan nan nan nan nan nan nan nan nan nan nan 0 0 3 7 13 13 16 25 28 28 29 32 31 16 16 12 17 21 21 23 25 25 27 25 25 25 31 31 29 30 30 24 32 52 52 75 38 29 29 24 17 18 18 22 20 20 24 29 9 nan nan nan nan nan nan nan nan nan nan nan nan nan nan nan nan nan nan nan nan nan nan nan nan nan nan nan nan
183 186 174 166 166 152 134 134 121 81 37 37 10 8 nan nan nan nan nan nan nan nan nan nan nan 0 0 0 1 2 5 5 7 11 18 18 24 27 29 20 20 20 20 17 17 16 18 18 22 24 28 28 33 34 30 30 30 31 33 41 41 62 40 32 32 23 16 17 17 18 15 15 15 13 10 nan nan nan nan nan nan nan nan nan nan nan nan nan nan nan nan nan nan nan nan nan nan nan nan nan nan nan nan